Location: Hawks Ness
(60.2333°N, 1.1667°W)
Time: 14:13:21
(UTC+00:00)

USA 234 - Pass Details

Date: 22 October 2019
Orbit: 1102 x 1106 km, 123.0° (Epoch: 12 November)

Event Time Altitude Azimuth Distance (km) Brightness Sun altitude
Rises 03:35:15 0° 135° (SE) 3,915 6.4 -25.7°
Reaches altitude 10° 03:37:54 10° 143° (SE) 2,959 5.6 -25.4°
Enters shadow 03:43:48 41° 207° (SSW) 1,542 3.6 -24.7°
